Latest Weather Observations for Bankstown

IDN60801

Issued at 9:03 am EST Saturday 27 August 2016 (issued every 30 minutes, with the page automatically refreshed every 10 minutes)

About weather observations | Map of weather stations | Latest weather observations for NSW | Other Formats
Station Details ID: 066137 Name: BANKSTOWN AIRPORT AWS Lat: -33.92 Lon: 150.99 Height: 6.5 m
Data from the previous 72 hours. | See also: Recent months at Bankstown
Date/Time
EST
Temp
°C
App
Temp
°C
Dew
Point
°C
Rel
Hum
%
Delta-T
°C
Wind Press
QNH
hPa
Press
MSL
hPa
Rain since
9am
mm
Dir  Spd
km/h
Gust
km/h
Spd
kts
Gust
kts
27/08:30am 10.4 6.2 3.9 64 2.9 WSW 15 20 8 11 1023.6 1023.6 0.0
27/08:00am 9.2 6.1 3.6 68 2.4 WSW 9 15 5 8 1023.5 1023.5 0.0
27/07:30am 7.7 4.9 3.4 74 1.8 WNW 7 11 4 6 1023.4 1023.4 0.0
27/07:00am 6.2 3.0 3.2 81 1.2 WNW 9 11 5 6 1023.2 1023.2 0.0
27/06:30am 5.7 2.4 2.7 81 1.2 WNW 9 11 5 6 1023.1 1023.1 0.0
27/06:00am 5.3 2.1 2.8 84 1.0 WNW 9 9 5 5 1022.7 1022.7 0.0
27/05:30am 4.8 1.5 2.5 85 0.9 NW 9 11 5 6 1022.4 1022.4 0.0
27/05:00am 6.1 3.3 3.1 81 1.2 NW 7 9 4 5 1022.2 1022.2 0.0
27/04:30am 6.2 3.3 2.7 78 1.4 WNW 7 9 4 5 1022.0 1022.0 0.0
27/04:00am 6.5 3.3 2.9 78 1.5 WNW 9 11 5 6 1021.9 1021.9 0.0
27/03:30am 7.1 4.5 3.2 76 1.6 W 6 7 3 4 1021.9 1021.9 0.0
27/03:00am 7.0 3.8 3.3 77 1.6 W 9 11 5 6 1021.8 1021.8 0.0
27/02:30am 7.1 4.1 3.9 80 1.4 W 9 13 5 7 1021.9 1021.9 0.0
27/02:00am 8.0 5.5 4.9 81 1.4 SW 7 9 4 5 1021.9 1021.9 0.0
27/01:30am 8.2 5.9 5.5 83 1.2 SW 7 11 4 6 1022.1 1022.1 0.0
27/01:00am 7.9 5.2 5.4 84 1.1 WSW 9 13 5 7 1022.1 1022.1 0.0
27/12:30am 8.5 6.2 5.8 83 1.2 SSW 7 11 4 6 1022.1 1022.1 0.0
27/12:00am 8.6 6.6 6.2 85 1.1 WSW 6 9 3 5 1022.0 1022.0 0.0
 
Date/Time
EST
Temp
°C
App
Temp
°C
Dew
Point
°C
Rel
Hum
%
Delta-T
°C
Wind Press
QNH
hPa
Press
MSL
hPa
Rain since
9am
mm
Dir  Spd
km/h
Gust
km/h
Spd
kts
Gust
kts
26/11:30pm 9.1 7.2 6.9 86 1.0 WSW 6 9 3 5 1021.8 1021.8 0.0
26/11:00pm 9.8 8.4 7.2 84 1.2 WSW 4 7 2 4 1021.7 1021.7 0.0
26/10:30pm 9.9 9.4 7.7 86 1.1 CALM 0 0 0 0 1021.5 1021.5 0.0
26/10:00pm 10.9 10.3 7.6 80 1.6 CALM 0 0 0 0 1021.4 1021.4 0.0
26/09:30pm 11.7 10.0 8.2 79 1.7 S 7 9 4 5 1021.4 1021.4 0.0
26/09:00pm 11.8 9.5 7.5 75 2.1 S 9 9 5 5 1021.2 1021.2 0.0
26/08:30pm 12.5 9.8 7.4 71 2.5 SE 11 17 6 9 1021.0 1021.0 0.0
26/08:00pm 12.1 11.0 7.0 71 2.4 NNW 2 7 1 4 1020.7 1020.7 0.0
26/07:30pm 11.9 10.4 7.0 72 2.3 SW 4 9 2 5 1020.3 1020.3 0.0
26/07:00pm 13.0 11.0 6.4 64 3.1 SSW 6 7 3 4 1020.0 1020.0 0.0
26/06:30pm 13.2 10.3 6.3 63 3.3 S 11 17 6 9 1019.7 1019.7 0.0
26/06:00pm 14.1 10.8 6.5 60 3.6 SSE 13 20 7 11 1019.2 1019.2 0.0
26/05:30pm 14.3 9.3 6.4 59 3.8 SSE 22 28 12 15 1019.0 1019.0 0.0
26/05:00pm 14.6 10.1 5.9 56 4.1 SE 19 24 10 13 1018.7 1018.7 0.0
26/04:30pm 15.2 10.3 5.1 51 4.8 SSE 20 30 11 16 1018.5 1018.5 0.0
26/04:00pm 15.7 10.2 5.9 52 4.7 SE 24 28 13 15 1018.1 1018.1 0.0
26/03:30pm 15.9 11.2 5.2 49 5.1 SE 19 26 10 14 1017.7 1017.7 0.0
26/03:00pm 14.8 11.4 5.9 55 4.2 ESE 13 19 7 10 1017.6 1017.6 0.0
26/02:30pm 14.8 10.6 5.9 55 4.3 SE 17 28 9 15 1017.6 1017.6 0.0
26/02:00pm 15.5 9.7 4.3 47 5.2 SE 24 30 13 16 1017.7 1017.7 0.0
26/01:30pm 15.3 12.3 4.1 47 5.2 SSE 9 17 5 9 1017.8 1017.8 0.0
26/01:00pm 14.8 11.3 3.3 46 5.2 SSW 11 19 6 10 1018.0 1018.0 0.0
26/12:30pm 15.1 12.5 4.2 48 5.0 S 7 13 4 7 1018.3 1018.3 0.0
26/12:00pm 14.5 11.3 3.3 47 5.0 SSE 9 13 5 7 1018.6 1018.6 0.0
26/11:30am 15.3 12.5 5.2 51 4.8 SW 9 17 5 9 1018.9 1018.9 0.0
26/11:00am 13.7 8.8 4.0 52 4.4 SW 19 24 10 13 1019.1 1019.1 0.0
26/10:30am 13.6 8.7 4.2 53 4.3 WSW 19 26 10 14 1019.1 1019.1 0.0
26/10:00am 12.6 8.2 4.8 59 3.6 SW 17 24 9 13 1019.1 1019.1 0.0
26/09:30am 11.2 6.1 3.0 57 3.6 SW 19 26 10 14 1019.2 1019.2 0.0
26/09:00am 10.5 5.3 2.6 58 3.4 SW 19 30 10 16 1019.2 1019.2 0.2
26/08:30am 9.1 4.0 2.9 65 2.6 SW 19 26 10 14 1018.9 1018.9 0.2
26/08:00am 7.9 4.1 4.1 77 1.6 SW 13 19 7 10 1019.0 1019.0 0.2
26/07:30am 6.5 3.8 3.8 83 1.1 WSW 7 11 4 6 1019.0 1019.0 0.2
26/07:00am 5.5 3.4 3.7 88 0.8 SSW 4 6 2 3 1018.8 1018.8 0.2
26/06:30am 4.8 2.2 3.0 88 0.7 WSW 6 9 3 5 1018.2 1018.2 0.2
26/06:00am 4.8 1.6 3.0 88 0.7 W 9 13 5 7 1017.7 1017.7 0.2
26/05:30am 4.3 2.4 2.7 89 0.6 WNW 2 6 1 3 1017.5 1017.5 0.2
26/05:00am 4.7 1.9 2.2 84 1.0 NW 6 7 3 4 1017.1 1017.1 0.2
26/04:30am 5.4 3.8 2.6 82 1.1 CALM 0 0 0 0 1016.7 1016.7 0.2
26/04:00am 6.6 3.8 3.0 78 1.5 WNW 7 9 4 5 1016.2 1016.2 0.2
26/03:30am 6.6 3.8 3.0 78 1.5 WSW 7 11 4 6 1016.0 1016.0 0.2
26/03:00am 7.3 4.1 3.0 74 1.8 SW 9 11 5 6 1016.2 1016.2 0.2
26/02:30am 7.2 4.0 3.1 75 1.7 WSW 9 13 5 7 1016.1 1016.1 0.2
26/02:00am 6.2 3.3 2.5 77 1.5 SW 7 9 4 5 1016.2 1016.2 0.2
26/01:30am 7.2 4.4 2.9 74 1.8 SSW 7 9 4 5 1016.3 1016.3 0.2
26/01:00am 7.2 3.9 2.5 72 1.9 SSW 9 13 5 7 1016.3 1016.3 0.2
26/12:30am 7.3 4.9 2.0 69 2.2 S 4 9 2 5 1016.2 1016.2 0.2
26/12:00am 8.4 5.6 2.2 65 2.6 SSW 6 9 3 5 1015.9 1015.9 0.2
 
Date/Time
EST
Temp
°C
App
Temp
°C
Dew
Point
°C
Rel
Hum
%
Delta-T
°C
Wind Press
QNH
hPa
Press
MSL
hPa
Rain since
9am
mm
Dir  Spd
km/h
Gust
km/h
Spd
kts
Gust
kts
25/11:30pm 8.6 5.6 1.7 62 2.8 WSW 7 11 4 6 1015.5 1015.5 0.2
25/11:00pm 9.1 5.7 1.8 60 3.0 W 9 15 5 8 1015.2 1015.2 0.2
25/10:30pm 9.9 6.5 2.0 58 3.3 WSW 9 17 5 9 1015.0 1015.0 0.2
25/10:00pm 10.7 6.6 2.0 55 3.7 WSW 13 19 7 10 1014.8 1014.8 0.2
25/09:30pm 10.5 6.8 2.4 57 3.5 WSW 11 19 6 10 1014.9 1014.9 0.2
25/09:00pm 10.9 6.6 3.0 58 3.4 W 15 20 8 11 1014.6 1014.6 0.2
25/08:30pm 11.3 7.1 3.8 60 3.3 W 15 19 8 10 1014.4 1014.4 0.2
25/08:00pm 9.9 7.4 4.9 71 2.2 WNW 7 11 4 6 1014.1 1014.1 0.2
25/07:30pm 10.4 8.4 4.5 67 2.6 NW 4 7 2 4 1013.7 1013.7 0.2
25/07:00pm 10.9 8.9 4.4 64 2.9 WNW 4 9 2 5 1013.3 1013.3 0.2
25/06:30pm 13.1 11.6 2.9 50 4.5 CALM 0 0 0 0 1012.8 1012.8 0.2
25/06:00pm 13.3 10.1 3.1 50 4.5 W 9 13 5 7 1012.4 1012.4 0.2
25/05:30pm 14.7 10.8 3.2 46 5.2 WSW 13 19 7 10 1012.1 1012.1 0.2
25/05:00pm 15.8 10.4 2.6 41 5.9 WSW 20 28 11 15 1011.6 1011.6 0.2
25/04:30pm 15.9 11.3 3.7 44 5.6 SSW 17 24 9 13 1011.1 1011.1 0.2
25/04:00pm 16.4 12.4 4.8 46 5.5 S 15 22 8 12 1010.7 1010.7 0.2
25/03:30pm 16.7 12.6 4.1 43 5.9 SSW 15 22 8 12 1010.6 1010.6 0.2
25/03:00pm 16.4 13.0 3.8 43 5.8 SSW 11 19 6 10 1010.4 1010.4 0.2
25/02:30pm 16.3 12.9 4.0 44 5.7 SSW 11 17 6 9 1010.3 1010.3 0.2
25/02:00pm 16.4 13.0 5.7 49 5.2 WSW 13 17 7 9 1010.3 1010.3 0.2
25/01:30pm 16.5 12.3 5.8 49 5.2 WSW 17 26 9 14 1010.1 1010.1 0.2
25/01:00pm 15.9 11.1 5.5 50 5.0 SW 20 32 11 17 1010.2 1010.2 0.2
25/12:30pm 15.0 10.3 5.0 51 4.7 SW 19 28 10 15 1010.5 1010.5 0.2
25/12:00pm 14.8 10.1 6.1 56 4.2 WSW 20 32 11 17 1010.7 1010.7 0.2
25/11:30am 14.7 9.5 5.5 54 4.4 SSW 22 32 12 17 1010.9 1010.9 0.2
25/11:00am 13.9 8.7 5.5 57 4.0 WSW 22 33 12 18 1010.9 1010.9 0.2
25/10:30am 14.2 9.2 6.6 60 3.7 SW 22 33 12 18 1011.0 1011.0 0.2
25/10:00am 12.9 7.8 6.0 63 3.3 WSW 22 33 12 18 1011.0 1011.0 0.2
25/09:30am 12.3 6.8 5.9 65 3.0 WSW 24 35 13 19 1010.8 1010.8 0.2
25/09:00am 11.4 8.3 7.3 76 2.0 W 13 17 7 9 1010.7 1010.7 56.4
25/08:30am 10.6 7.4 6.7 77 1.8 WSW 13 19 7 10 1010.7 1010.7 56.4
25/08:00am 10.6 6.6 6.7 77 1.8 WSW 17 24 9 13 1010.5 1010.5 56.4
25/07:30am 9.6 6.3 6.5 81 1.4 WSW 13 17 7 9 1010.3 1010.3 56.4
25/07:00am 9.2 5.9 6.3 82 1.3 WSW 13 19 7 10 1009.8 1009.8 56.4
25/06:30am 8.9 5.6 6.2 83 1.2 W 13 19 7 10 1009.4 1009.4 56.4
25/06:00am 8.9 6.0 6.3 84 1.2 W 11 17 6 9 1009.1 1009.1 56.4
25/05:30am 9.0 6.4 6.3 83 1.2 WSW 9 13 5 7 1008.7 1008.7 56.4
25/05:00am 9.3 6.3 5.9 79 1.6 WSW 11 17 6 9 1008.4 1008.4 56.4
25/04:30am 9.4 5.3 6.1 80 1.5 WSW 17 22 9 12 1008.1 1008.1 56.4
25/04:00am 9.5 5.5 6.8 83 1.3 SW 17 22 9 12 1007.9 1007.9 56.4
25/03:30am 9.4 5.8 6.8 84 1.2 SW 15 22 8 12 1007.9 1007.9 56.4
25/03:00am 9.3 6.2 7.4 88 0.9 SW 13 20 7 11 1007.7 1007.7 56.4
25/02:30am 9.2 6.2 7.5 89 0.8 SW 13 20 7 11 1007.8 1007.8 56.4
25/02:00am 9.3 5.9 7.7 90 0.8 W 15 19 8 10 1007.9 1007.9 56.4
25/01:30am 9.1 6.1 7.7 91 0.7 SW 13 17 7 9 1007.8 1007.8 56.4
25/01:00am 9.1 6.1 7.9 92 0.6 WSW 13 19 7 10 1008.0 1008.0 56.4
25/12:30am 8.9 6.0 8.0 94 0.4 WSW 13 19 7 10 1007.9 1007.9 56.4
25/12:00am 9.1 6.6 8.2 94 0.4 SW 11 15 6 8 1007.9 1007.9 56.2
 
Date/Time
EST
Temp
°C
App
Temp
°C
Dew
Point
°C
Rel
Hum
%
Delta-T
°C
Wind Press
QNH
hPa
Press
MSL
hPa
Rain since
9am
mm
Dir  Spd
km/h
Gust
km/h
Spd
kts
Gust
kts
24/11:30pm 9.4 5.8 8.2 92 0.6 SSW 17 26 9 14 1007.9 1007.9 56.0
24/11:00pm 9.1 5.4 8.0 93 0.5 SW 17 26 9 14 1008.1 1008.1 55.6
24/10:30pm 9.0 4.9 7.8 92 0.6 SW 19 28 10 15 1008.1 1008.1 55.2
24/10:00pm 9.4 5.2 8.2 92 0.6 SW 20 32 11 17 1008.3 1008.3 54.0
24/09:30pm 9.7 5.6 8.5 92 0.6 SW 20 30 11 16 1008.1 1008.1 52.2
24/09:00pm 10.1 6.1 9.0 93 0.5 WSW 20 32 11 17 1008.2 1008.2 50.8
24/08:30pm 10.2 7.3 9.6 96 0.3 SW 15 22 8 12 1008.0 1008.0 50.4
24/08:13pm 10.4 7.2 9.9 97 0.3 SSW 17 22 9 12 1007.8 1007.8 50.0
24/08:11pm 10.4 7.2 9.9 97 0.3 SSW 17 22 9 12 1007.6 1007.6 50.0
24/08:00pm 10.5 7.7 10.0 97 0.3 SW 15 20 8 11 1007.8 1007.8 49.0
24/07:30pm 10.9 7.3 10.4 97 0.3 WSW 20 26 11 14 1008.0 1008.0 45.6
24/07:00pm 11.1 7.7 10.5 96 0.3 SSW 19 26 10 14 1007.4 1007.4 40.8
24/06:53pm 11.1 7.1 10.5 96 0.3 SSW 22 28 12 15 1007.3 1007.3 39.8
24/06:30pm 11.3 8.3 10.7 96 0.3 S 17 28 9 15 1007.3 1007.3 37.2
24/06:26pm 11.2 7.6 10.6 96 0.3 S 20 30 11 16 1007.3 1007.3 37.0
24/06:00pm 11.1 5.2 10.5 96 0.3 S 32 41 17 22 1007.5 1007.5 34.0
24/05:53pm 11.1 6.3 10.3 95 0.4 SSW 26 41 14 22 1007.3 1007.3 32.2
24/05:42pm 11.5 7.9 10.6 94 0.5 SSW 20 35 11 19 1007.8 1007.8 23.0
24/05:30pm 11.8 7.8 10.4 91 0.7 SSE 22 37 12 20 1005.9 1005.9 21.6
24/05:00pm 12.9 10.4 12.3 96 0.3 SE 17 19 9 10 1006.6 1006.6 20.8
24/04:55pm 12.9 10.8 12.3 96 0.3 SE 15 20 8 11 1006.7 1006.7 20.4
24/04:30pm 12.6 8.2 11.8 95 0.4 SE 26 33 14 18 1006.5 1006.5 19.0
24/04:24pm 12.7 8.7 11.9 95 0.4 SE 24 30 13 16 1006.6 1006.6 18.8
24/04:04pm 12.7 9.5 11.8 94 0.5 SE 20 28 11 15 1007.1 1007.1 18.2
24/04:00pm 12.7 9.5 11.8 94 0.5 SE 20 26 11 14 1007.1 1007.1 18.2
24/03:46pm 12.7 9.5 11.8 94 0.5 SE 20 28 11 15 1007.5 1007.5 18.0
24/03:36pm 12.6 8.6 11.7 94 0.5 SE 24 30 13 16 1007.3 1007.3 17.6
24/03:30pm 13.1 9.3 12.3 95 0.4 SE 24 32 13 17 1007.5 1007.5 17.4
24/03:00pm 13.3 11.2 12.5 95 0.4 SE 15 19 8 10 1007.7 1007.7 14.8
24/02:31pm 13.3 12.3 12.4 94 0.5 SSE 9 11 5 6 1008.3 1008.3 11.8
24/02:30pm 13.3 12.3 12.4 94 0.5 SE 9 11 5 6 1008.3 1008.3 11.8
24/02:00pm 13.1 12.2 12.5 96 0.3 SSW 9 15 5 8 1008.7 1008.7 10.6
24/01:30pm 12.7 10.4 11.9 95 0.4 S 15 19 8 10 1008.6 1008.6 10.4
24/01:00pm 12.6 10.7 11.7 94 0.5 S 13 19 7 10 1009.2 1009.2 9.6
24/12:33pm 12.3 9.9 11.4 94 0.5 SSE 15 17 8 9 1009.7 1009.7 9.4
24/12:30pm 12.5 10.2 11.7 95 0.4 SSE 15 20 8 11 1009.7 1009.7 9.2
24/12:00pm 12.4 10.0 11.3 93 0.6 SSE 15 20 8 11 1010.5 1010.5 6.6
24/11:57am 12.6 9.8 11.5 93 0.6 SSE 17 20 9 11 1010.7 1010.7 6.4
24/11:30am 12.7 10.4 11.8 94 0.5 S 15 20 8 11 1011.0 1011.0 4.2
24/11:16am 12.7 11.1 11.6 93 0.6 S 11 15 6 8 1011.4 1011.4 3.2
24/11:00am 13.0 11.9 12.1 94 0.5 SSW 9 13 5 7 1011.9 1011.9 2.2
24/10:48am 12.6 11.5 11.8 95 0.4 SSW 9 13 5 7 1012.5 1012.5 2.2
24/10:30am 12.2 11.5 11.3 94 0.5 W 6 9 3 5 1013.3 1013.3 1.8
24/10:23am 12.1 11.1 11.0 93 0.6 W 7 11 4 6 1013.5 1013.5 1.2
24/10:22am 12.1 11.2 11.2 94 0.5 W 7 11 4 6 1013.6 1013.6 1.0
24/10:00am 12.1 10.8 11.3 95 0.4 WSW 9 11 5 6 1013.6 1013.6 0.6
24/09:30am 11.9 10.6 11.1 95 0.4 SW 9 13 5 7 1013.5 1013.5 0.2
24/09:26am 11.9 11.0 11.3 96 0.3 SSW 7 11 4 6 1013.4 1013.4 0.2

Other Formats:

Comma delimited format used in spreadsheet applications
http://www.bom.gov.au/fwo/IDN60801/IDN60801.94765.axf

JavaScript Object Notation format (JSON) in row-major order
http://www.bom.gov.au/fwo/IDN60801/IDN60801.94765.json